Regional Weather Roundup
Issued by NWS

Home | Current Version | Previous Version | Graphics & Text | Print | Product List | Glossary On
Versions: 1 2 3 4 5 6 7 8 9 10 11 12 13 14 15 16 17 18 19 20 21 22 23 24 25 26 27 28 29 30 31 32 33 34 35 36 37 38 39 40 41 42 43 44 45 46 47 48 49 50
000
ASUS43 KDMX 161506
RWRIA

WEATHER ROUNDUP FOR IOWA
NATIONAL WEATHER SERVICE DES MOINES IA
900 AM CST MON JAN 16 2017

NOTE: "FAIR" INDICATES FEW OR NO CLOUDS BELOW 12,000 FEET WITH NO
SIGNIFICANT WEATHER AND/OR OBSTRUCTIONS TO VISIBILITY.

* - THESE STATIONS ARE NOT NWS STATIONS...THUS NOT UNDER NWS
QUALITY CONTROL.  THEY ALSO DO NOT REPORT WEATHER SUCH
AS PRECIPITATION OR FOG.

IAZ001>003-012>014-020>022-031>034-043>046-161600-
   NORTHWEST IOWA

CITY           SKY/WX    TMP DP  RH WIND       PRES   REMARKS
CARROLL *      FOG       32  32 100 E14       30.03F VSB 1/4 WCI  22
CHEROKEE *     CLOUDY    31  31 100 NE6       30.04F WCI  25
DENISON *      CLOUDY    32  32 100 E12       29.98F FOG     WCI  23
LE MARS *      CLOUDY    32  30  93 NE7       30.05S FOG     WCI  26
ORANGE CITY *  CLOUDY    28  28 100 E5        30.04S FOG     WCI  23
SHELDON *      CLOUDY    28  28 100 NE8       30.03F FOG     WCI  20
SIOUX CITY     CLOUDY    34  31  88 NE7       30.03F WCI  28
SPENCER        CLOUDY    29  29 100 E7        30.06F FOG     WCI  22
STORM LAKE *   CLOUDY    30  30 100 E14       30.03F FOG     WCI  20
$$

IAZ055>058-069>071-079>083-090>094-161600-
   SOUTHWEST IOWA

CITY           SKY/WX    TMP DP  RH WIND       PRES   REMARKS
ATLANTIC *     LGT RAIN  32  32 100 NE8G14    29.99R WCI  25
AUDUBON *      MIX PCPN  32  30  93 E12       30.01F WCI  23
CLARINDA *     CLOUDY    34  34 100 E6G14     29.98F FOG     WCI  29
COUNCIL BLFS * LGT RAIN  32  32 100 NE13      29.96F WCI  22
CRESTON *      LGT RAIN  32  32 100 E16       29.99S WCI  21
HARLAN  *      LGT RAIN  32  32 100 NE13      30.02F WCI  22
LAMONI         MIX PCPN  32  31  96 E9        29.98S FOG     WCI  24
RED OAK *      RAIN      34  32  93 E10G18    29.98R WCI  26
SHENANDOAH *   LGT RAIN  34  32  93 NE10      29.96F WCI  26
$$

IAZ047>049-059>061-072>074-084-161600-
   CENTRAL IOWA

CITY           SKY/WX    TMP DP  RH WIND       PRES   REMARKS
AMES           FRZ RAIN  32  32 100 E9        30.07F FOG     WCI  24
ANKENY *       LGT RAIN  32  32 100 MISG      30.08F
BOONE *        CLOUDY    32  32 100 MISG      30.05F FOG
CHARITON *     LGT RAIN  32  32 100 E14       30.02F WCI  22
DES MOINES     FRZ RAIN  33  31  92 E10       30.05F FOG     WCI  25
GRINNELL*      LGT SNOW  32  31  98 E8        30.09F WCI  25
KNOXVILLE *    LGT RAIN  32  32 100 E12G18    30.04F WCI  23
MARSHALLTOWN   FRZ RAIN  31  31 100 E14       30.09F FOG     WCI  21
NEWTON *       CLOUDY    32  32 100 E15       30.06F FOG     WCI  22
PELLA *        RAIN      32  32  99 E8        30.08F WCI  25
PERRY *        LGT RAIN  32  32 100 E8        30.05F WCI  25
$$

IAZ004>006-015-016-023>025-035-036-161600-
   NORTH CENTRAL IOWA

CITY           SKY/WX    TMP DP  RH WIND       PRES   REMARKS
ALGONA *       CLOUDY    32  32 100 SE8       30.07S FOG     WCI  25
CLARION *      CLOUDY    30  30 100 E9        30.08F FOG     WCI  22
ESTHERVILLE    CLOUDY    27  27 100 E7        30.07F FOG     WCI  19
FORT DODGE *   CLOUDY    30  28  93 CALM      30.08F
MASON CITY     CLOUDY    29  28  96 SE12      30.10F FOG     WCI  19
FOREST CITY *  MIX PCPN  30  30 100 SE8       30.09F WCI  23
WEBSTER CITY * CLOUDY    32  32 100 E14       30.06F FOG     WCI  22
IOWA FALLS *   CLOUDY    32  30  94 E9        30.10S FOG     WCI  24
$$

IAZ007>011-017>019-026>030-037>042-050>054-066-161600-
   NORTHEAST IOWA

CITY           SKY/WX    TMP DP  RH WIND       PRES   REMARKS
CEDAR RAPIDS   FRZ RAIN  31  31 100 E10       30.13F VSB 1   WCI  22
CHARLES CITY * CLOUDY    30  30 100 E9        30.12S FOG     WCI  22
CLINTON *      MIX PCPN  32  31  96 E12       30.19S FOG     WCI  23
DECORAH *      CLOUDY    28  27  93 E6        30.13F FOG     WCI  22
DUBUQUE        CLOUDY    30  29  96 SE7       30.16F FOG     WCI  23
MONTICELLO *   CLOUDY    32  30  93 SE9       30.16S FOG     WCI  24
OELWEIN *      CLOUDY    30  30 100 SE9       30.13F FOG     WCI  22
WATERLOO       MIX PCPN  31  29  92 E9        30.13S FOG     WCI  23
$$

IAZ064-065-067-068-078-161600-
   EAST CENTRAL IOWA

CITY           SKY/WX    TMP DP  RH WIND       PRES   REMARKS
DAVENPORT      MIX PCPN  32  31  96 E10       30.17F VSB 1   WCI  24
IOWA CITY      FRZ RAIN  33  31  92 E9        30.16F FOG     WCI  25
MUSCATINE *    LGT RAIN  34  32  93 E10       30.15F WCI  26
QUAD CITIES    LGT RAIN  33  31  92 E10       30.17F FOG     WCI  25
$$

IAZ062-063-075>077-085>089-095>099-161600-
   SOUTHEAST IOWA

CITY           SKY/WX    TMP DP  RH WIND       PRES   REMARKS
BURLINGTON     RAIN      33  33 100 E9        30.11F FOG     WCI  25
FAIRFIELD *    CLOUDY    32  32 100 E14G20    30.09F FOG     WCI  22
FORT MADISON * LGT SNOW  34  32  93 E10       30.11F WCI  26
KEOKUK *       LGT RAIN  34  34 100 E9        30.09F WCI  26
OSKALOOSA *    LGT RAIN  32  32  99 E10       30.08F WCI  24
CENTERVILLE *  LGT RAIN  32  32 100 CALM      30.04F
OTTUMWA        RAIN      33  31  92 E14       30.06F FOG     WCI  23
WASHINGTON *   LGT RAIN  32  32 100 E14       30.13F WCI  22
$$

ABBREVIATIONS USED IN REMARKS
   TC - TEMPERATURES IN CELSIUS
  WCI - WIND CHILL INDEX
   HX - HEAT INDEX
  VSB - VISIBILITY
$$





USA.gov is the U.S. government's official web portal to all federal, state and local government web resources and services.